contact:dominique.lefevre@mio.osupytheas.fr, maurice.libes@osupytheas.fr, didier.mallarino@osupytheas.fr
Project:EMSO http://www.emso-fr.org/EMSO-France
Depth: 2436.0 m
Title:EMSO Ligure Ouest : Data MII capteur CSTAR
DateTime,Latitude,Longitude,Instrument_Serial,Reference_Counts,Signal_Counts,Corrected_Signal_raw_counts,Calculated_Beam_c_inverse_meters,Internal_thermistor_counts
DateTime,Latitude,Longitude,Instrument_Serial,Reference_Counts,Signal_Counts,Corrected_Signal_raw_counts,Calculated_Beam_c_inverse_meters,Internal_thermistor_counts
2023-01-25T00:00:47,42.805,6.029,CST-1368DR,4412,4936,11890,01.090,551
2023-01-25T00:03:49,42.805,6.029,CST-1368DR,4412,4936,11890,01.090,551
2023-01-25T00:06:50,42.805,6.029,CST-1368DR,4412,4936,11890,01.090,551
2023-01-25T00:09:52,42.805,6.029,CST-1368DR,4412,4935,11889,01.091,551
2023-01-25T00:12:53,42.805,6.029,CST-1368DR,4412,4936,11889,01.091,551
2023-01-25T00:15:55,42.805,6.029,CST-1368DR,4412,4933,11884,01.092,551
2023-01-25T00:18:57,42.805,6.029,CST-1368DR,4412,4936,11889,01.091,551
2023-01-25T00:21:58,42.805,6.029,CST-1368DR,4412,4936,11889,01.091,551
2023-01-25T00:25:00,42.805,6.029,CST-1368DR,4412,4936,11891,01.090,551
2023-01-25T00:28:01,42.805,6.029,CST-1368DR,4412,4936,11889,01.091,551
2023-01-25T00:31:03,42.805,6.029,CST-1368DR,4411,4935,11890,01.090,551
2023-01-25T00:34:05,42.805,6.029,CST-1368DR,4411,4936,11892,01.090,551
2023-01-25T00:37:06,42.805,6.029,CST-1368DR,4411,4936,11892,01.090,551
2023-01-25T00:40:08,42.805,6.029,CST-1368DR,4411,4936,11894,01.089,551
2023-01-25T00:43:09,42.805,6.029,CST-1368DR,4411,4935,11891,01.090,551
2023-01-25T00:46:11,42.805,6.029,CST-1368DR,4411,4936,11892,01.090,551
2023-01-25T00:49:12,42.805,6.029,CST-1368DR,4411,4934,11889,01.091,551
2023-01-25T00:52:14,42.805,6.029,CST-1368DR,4411,4933,11886,01.092,551
2023-01-25T00:55:16,42.805,6.029,CST-1368DR,4411,4935,11891,01.090,551
2023-01-25T00:58:17,42.805,6.029,CST-1368DR,4411,4934,11888,01.091,551
2023-01-25T01:01:19,42.805,6.029,CST-1368DR,4411,4933,11886,01.092,551
2023-01-25T01:04:20,42.805,6.029,CST-1368DR,4411,4934,11888,01.091,551
2023-01-25T01:07:22,42.805,6.029,CST-1368DR,4411,4934,11889,01.091,551
2023-01-25T01:10:24,42.805,6.029,CST-1368DR,4411,4933,11885,01.092,551
2023-01-25T01:13:25,42.805,6.029,CST-1368DR,4411,4935,11889,01.091,551
2023-01-25T01:16:27,42.805,6.029,CST-1368DR,4411,4935,11889,01.091,551
2023-01-25T01:19:28,42.805,6.029,CST-1368DR,4411,4934,11889,01.091,551
2023-01-25T01:22:30,42.805,6.029,CST-1368DR,4411,4933,11886,01.092,551
2023-01-25T01:25:32,42.805,6.029,CST-1368DR,4411,4934,11889,01.091,551
2023-01-25T01:28:33,42.805,6.029,CST-1368DR,4411,4930,11879,01.094,551
2023-01-25T01:31:35,42.805,6.029,CST-1368DR,4411,4935,11890,01.090,551
2023-01-25T01:34:36,42.805,6.029,CST-1368DR,4411,4934,11889,01.091,551
2023-01-25T01:37:38,42.805,6.029,CST-1368DR,4411,4935,11890,01.090,551
2023-01-25T01:40:39,42.805,6.029,CST-1368DR,4411,4931,11880,01.094,551
2023-01-25T01:43:41,42.805,6.029,CST-1368DR,4411,4934,11888,01.091,551
2023-01-25T01:46:43,42.805,6.029,CST-1368DR,4411,4935,11891,01.090,551
2023-01-25T01:49:44,42.805,6.029,CST-1368DR,4411,4936,11892,01.090,551
2023-01-25T01:52:46,42.805,6.029,CST-1368DR,4411,4933,11886,01.092,551
2023-01-25T01:55:47,42.805,6.029,CST-1368DR,4411,4936,11892,01.090,551
2023-01-25T01:58:49,42.805,6.029,CST-1368DR,4411,4934,11889,01.091,551
2023-01-25T02:01:51,42.805,6.029,CST-1368DR,4411,4934,11888,01.091,551
2023-01-25T02:04:52,42.805,6.029,CST-1368DR,4411,4934,11889,01.091,551
2023-01-25T02:07:54,42.805,6.029,CST-1368DR,4411,4934,11889,01.091,551
2023-01-25T02:10:55,42.805,6.029,CST-1368DR,4411,4935,11890,01.090,551
2023-01-25T02:13:57,42.805,6.029,CST-1368DR,4411,4935,11889,01.091,551
2023-01-25T02:16:58,42.805,6.029,CST-1368DR,4411,4933,11885,01.092,551
2023-01-25T02:20:00,42.805,6.029,CST-1368DR,4411,4934,11889,01.091,551
2023-01-25T02:23:02,42.805,6.029,CST-1368DR,4411,4934,11889,01.091,551
2023-01-25T02:26:03,42.805,6.029,CST-1368DR,4411,4934,11888,01.091,551
2023-01-25T02:29:05,42.805,6.029,CST-1368DR,4411,4934,11889,01.091,551
2023-01-25T02:32:06,42.805,6.029,CST-1368DR,4411,4933,11885,01.092,551
2023-01-25T02:35:08,42.805,6.029,CST-1368DR,4411,4935,11889,01.091,551
2023-01-25T02:38:10,42.805,6.029,CST-1368DR,4411,4935,11890,01.090,551
2023-01-25T02:41:11,42.805,6.029,CST-1368DR,4411,4934,11889,01.091,551
2023-01-25T02:44:13,42.805,6.029,CST-1368DR,4411,4935,11891,01.090,551
2023-01-25T02:47:14,42.805,6.029,CST-1368DR,4411,4934,11888,01.091,551
2023-01-25T02:50:16,42.805,6.029,CST-1368DR,4411,4937,11894,01.089,551
2023-01-25T02:53:17,42.805,6.029,CST-1368DR,4411,4933,11886,01.092,551
2023-01-25T02:56:19,42.805,6.029,CST-1368DR,4410,4935,11894,01.089,551
2023-01-25T02:59:21,42.805,6.029,CST-1368DR,4411,4936,11892,01.090,551
2023-01-25T03:02:22,42.805,6.029,CST-1368DR,4410,4935,11894,01.089,551
2023-01-25T03:05:24,42.805,6.029,CST-1368DR,4411,4937,11894,01.089,551
2023-01-25T03:08:25,42.805,6.029,CST-1368DR,4411,4936,11892,01.090,551
2023-01-25T03:11:27,42.805,6.029,CST-1368DR,4411,4937,11895,01.089,551
2023-01-25T03:14:29,42.805,6.029,CST-1368DR,4411,4936,11894,01.089,551
2023-01-25T03:17:30,42.805,6.029,CST-1368DR,4411,4935,11891,01.090,551
2023-01-25T03:20:32,42.805,6.029,CST-1368DR,4411,4936,11892,01.090,551
2023-01-25T03:23:33,42.805,6.029,CST-1368DR,4411,4936,11892,01.090,551
2023-01-25T03:26:35,42.805,6.029,CST-1368DR,4411,4936,11892,01.090,551
2023-01-25T03:29:36,42.805,6.029,CST-1368DR,4411,4934,11888,01.091,551
2023-01-25T03:32:38,42.805,6.029,CST-1368DR,4411,4935,11891,01.090,551
2023-01-25T03:35:40,42.805,6.029,CST-1368DR,4411,4934,11889,01.091,551
2023-01-25T03:38:41,42.805,6.029,CST-1368DR,4410,4936,11896,01.088,551
2023-01-25T03:41:43,42.805,6.029,CST-1368DR,4410,4936,11896,01.088,551
2023-01-25T03:44:44,42.805,6.029,CST-1368DR,4411,4936,11892,01.090,551
2023-01-25T03:47:46,42.805,6.029,CST-1368DR,4411,4935,11891,01.090,551
2023-01-25T03:50:48,42.805,6.029,CST-1368DR,4411,4937,11894,01.089,551
2023-01-25T03:53:49,42.805,6.029,CST-1368DR,4411,4936,11892,01.090,551
2023-01-25T03:56:51,42.805,6.029,CST-1368DR,4411,4936,11894,01.089,551
2023-01-25T03:59:52,42.805,6.029,CST-1368DR,4411,4935,11889,01.091,551
2023-01-25T04:02:54,42.805,6.029,CST-1368DR,4411,4936,11893,01.089,551
2023-01-25T04:05:55,42.805,6.029,CST-1368DR,4411,4936,11894,01.089,551
2023-01-25T04:08:57,42.805,6.029,CST-1368DR,4411,4937,11896,01.088,551
2023-01-25T04:11:59,42.805,6.029,CST-1368DR,4411,4936,11894,01.089,551
2023-01-25T04:15:00,42.805,6.029,CST-1368DR,4411,4936,11892,01.090,551
2023-01-25T04:18:02,42.805,6.029,CST-1368DR,4411,4937,11895,01.089,551
2023-01-25T04:21:03,42.805,6.029,CST-1368DR,4411,4936,11894,01.089,551
2023-01-25T04:24:05,42.805,6.029,CST-1368DR,4411,4935,11891,01.090,551
2023-01-25T04:27:07,42.805,6.029,CST-1368DR,4411,4937,11894,01.089,551
2023-01-25T04:30:08,42.805,6.029,CST-1368DR,4411,4936,11892,01.090,551
2023-01-25T04:33:10,42.805,6.029,CST-1368DR,4410,4937,11897,01.088,551
2023-01-25T04:36:11,42.805,6.029,CST-1368DR,4410,4936,11896,01.088,551
2023-01-25T04:39:13,42.805,6.029,CST-1368DR,4410,4937,11899,01.087,551
2023-01-25T04:42:14,42.805,6.029,CST-1368DR,4410,4936,11896,01.088,551
2023-01-25T04:45:16,42.805,6.029,CST-1368DR,4410,4936,11894,01.089,551
2023-01-25T04:48:18,42.805,6.029,CST-1368DR,4410,4937,11899,01.087,551
2023-01-25T04:51:19,42.805,6.029,CST-1368DR,4410,4935,11893,01.089,551
2023-01-25T04:54:21,42.805,6.029,CST-1368DR,4410,4935,11892,01.090,551
2023-01-25T04:57:22,42.805,6.029,CST-1368DR,4410,4935,11894,01.089,551
2023-01-25T05:00:24,42.805,6.029,CST-1368DR,4410,4936,11894,01.089,551
2023-01-25T05:03:26,42.805,6.029,CST-1368DR,4410,4934,11891,01.090,551
2023-01-25T05:06:27,42.805,6.029,CST-1368DR,4410,4934,11891,01.090,551
2023-01-25T05:09:29,42.805,6.029,CST-1368DR,4410,4936,11894,01.089,551
2023-01-25T05:12:30,42.805,6.029,CST-1368DR,4410,4934,11891,01.090,551
2023-01-25T05:15:32,42.805,6.029,CST-1368DR,4410,4936,11896,01.088,551
2023-01-25T05:18:33,42.805,6.029,CST-1368DR,4410,4935,11893,01.089,551
2023-01-25T05:21:35,42.805,6.029,CST-1368DR,4410,4935,11893,01.089,551
2023-01-25T05:24:37,42.805,6.029,CST-1368DR,4410,4935,11893,01.089,551
2023-01-25T05:27:38,42.805,6.029,CST-1368DR,4410,4935,11894,01.089,551
2023-01-25T05:30:40,42.805,6.029,CST-1368DR,4410,4936,11894,01.089,551
2023-01-25T05:33:41,42.805,6.029,CST-1368DR,4410,4936,11896,01.088,551
2023-01-25T05:36:43,42.805,6.029,CST-1368DR,4410,4934,11890,01.090,551
2023-01-25T05:39:45,42.805,6.029,CST-1368DR,4410,4936,11895,01.089,551
2023-01-25T05:42:46,42.805,6.029,CST-1368DR,4410,4936,11896,01.088,551
2023-01-25T05:45:48,42.805,6.029,CST-1368DR,4410,4936,11894,01.089,551
2023-01-25T05:48:49,42.805,6.029,CST-1368DR,4410,4933,11887,01.091,551
2023-01-25T05:51:51,42.805,6.029,CST-1368DR,4410,4936,11896,01.088,551
2023-01-25T05:54:52,42.805,6.029,CST-1368DR,4410,4934,11890,01.090,551
2023-01-25T05:57:54,42.805,6.029,CST-1368DR,4410,4936,11895,01.089,551
2023-01-25T06:00:56,42.805,6.029,CST-1368DR,4410,4936,11895,01.089,551
2023-01-25T06:03:57,42.805,6.029,CST-1368DR,4410,4933,11888,01.091,551
2023-01-25T06:06:59,42.805,6.029,CST-1368DR,4410,4933,11888,01.091,551
2023-01-25T06:10:00,42.805,6.029,CST-1368DR,4410,4935,11893,01.089,551
2023-01-25T06:13:02,42.805,6.029,CST-1368DR,4410,4934,11890,01.090,551
2023-01-25T06:16:04,42.805,6.029,CST-1368DR,4410,4933,11889,01.091,551
2023-01-25T06:19:05,42.805,6.029,CST-1368DR,4410,4934,11891,01.090,551
2023-01-25T06:22:07,42.805,6.029,CST-1368DR,4410,4935,11893,01.089,551
2023-01-25T06:25:08,42.805,6.029,CST-1368DR,4410,4935,11894,01.089,551
2023-01-25T06:28:10,42.805,6.029,CST-1368DR,4410,4935,11893,01.089,551
2023-01-25T06:31:11,42.805,6.029,CST-1368DR,4410,4933,11887,01.091,551
2023-01-25T06:34:13,42.805,6.029,CST-1368DR,4410,4932,11886,01.092,551
2023-01-25T06:37:15,42.805,6.029,CST-1368DR,4410,4935,11894,01.089,551
2023-01-25T06:40:16,42.805,6.029,CST-1368DR,4410,4935,11892,01.090,551
2023-01-25T06:43:18,42.805,6.029,CST-1368DR,4410,4935,11893,01.089,551
2023-01-25T06:46:19,42.805,6.029,CST-1368DR,4410,4935,11893,01.089,551
2023-01-25T06:49:21,42.805,6.029,CST-1368DR,4410,4934,11890,01.090,551
2023-01-25T06:52:23,42.805,6.029,CST-1368DR,4410,4933,11888,01.091,551
2023-01-25T06:55:24,42.805,6.029,CST-1368DR,4410,4933,11889,01.091,551
2023-01-25T06:58:26,42.805,6.029,CST-1368DR,4410,4935,11892,01.090,551
2023-01-25T07:01:27,42.805,6.029,CST-1368DR,4410,4934,11891,01.090,551
2023-01-25T07:04:29,42.805,6.029,CST-1368DR,4410,4933,11887,01.091,551
2023-01-25T07:07:31,42.805,6.029,CST-1368DR,4410,4931,11884,01.092,551
2023-01-25T07:10:32,42.805,6.029,CST-1368DR,4410,4933,11888,01.091,551
2023-01-25T07:13:34,42.805,6.029,CST-1368DR,4410,4932,11887,01.091,551
2023-01-25T07:16:35,42.805,6.029,CST-1368DR,4410,4933,11887,01.091,551
2023-01-25T07:19:37,42.805,6.029,CST-1368DR,4410,4933,11888,01.091,551
2023-01-25T07:22:38,42.805,6.029,CST-1368DR,4410,4933,11889,01.091,551
2023-01-25T07:25:40,42.805,6.029,CST-1368DR,4410,4931,11883,01.093,551
2023-01-25T07:28:42,42.805,6.029,CST-1368DR,4410,4932,11887,01.091,551
2023-01-25T07:31:43,42.805,6.029,CST-1368DR,4410,4924,11866,01.098,551
2023-01-25T07:34:45,42.805,6.029,CST-1368DR,4410,4921,11860,01.100,551
2023-01-25T07:37:46,42.805,6.029,CST-1368DR,4410,4923,11864,01.099,551
2023-01-25T07:40:48,42.805,6.029,CST-1368DR,4410,4921,11860,01.100,551
2023-01-25T07:43:50,42.805,6.029,CST-1368DR,4410,4925,11870,01.097,551
2023-01-25T07:46:51,42.805,6.029,CST-1368DR,4410,4924,11866,01.098,551
2023-01-25T07:49:53,42.805,6.029,CST-1368DR,4410,4925,11870,01.097,551
2023-01-25T07:52:54,42.805,6.029,CST-1368DR,4410,4926,11870,01.097,551
2023-01-25T07:55:56,42.805,6.029,CST-1368DR,4410,4925,11869,01.097,551
2023-01-25T07:58:57,42.805,6.029,CST-1368DR,4410,4925,11868,01.098,551
2023-01-25T08:01:59,42.805,6.029,CST-1368DR,4410,4926,11871,01.097,551
2023-01-25T08:05:01,42.805,6.029,CST-1368DR,4410,4927,11873,01.096,551
2023-01-25T08:08:02,42.805,6.029,CST-1368DR,4410,4926,11871,01.097,551
2023-01-25T08:11:04,42.805,6.029,CST-1368DR,4410,4926,11871,01.097,551
2023-01-25T08:14:05,42.805,6.029,CST-1368DR,4410,4926,11872,01.096,551
2023-01-25T08:17:07,42.805,6.029,CST-1368DR,4410,4925,11868,01.098,551
2023-01-25T08:20:09,42.805,6.029,CST-1368DR,4410,4926,11871,01.097,551
2023-01-25T08:23:10,42.805,6.029,CST-1368DR,4410,4925,11868,01.098,551
2023-01-25T08:26:12,42.805,6.029,CST-1368DR,4410,4921,11859,01.101,551
2023-01-25T08:29:13,42.805,6.029,CST-1368DR,4409,4925,11871,01.097,551
2023-01-25T08:32:15,42.805,6.029,CST-1368DR,4409,4923,11866,01.098,551
2023-01-25T08:35:17,42.805,6.029,CST-1368DR,4410,4924,11867,01.098,551
2023-01-25T08:38:18,42.805,6.029,CST-1368DR,4409,4923,11867,01.098,551
2023-01-25T08:41:20,42.805,6.029,CST-1368DR,4409,4926,11873,01.096,551
2023-01-25T08:44:21,42.805,6.029,CST-1368DR,4409,4924,11869,01.097,551
2023-01-25T08:47:23,42.805,6.029,CST-1368DR,4409,4925,11870,01.097,551
2023-01-25T08:50:24,42.805,6.029,CST-1368DR,4409,4924,11869,01.097,551
2023-01-25T08:53:26,42.805,6.029,CST-1368DR,4409,4923,11867,01.098,551
2023-01-25T08:56:28,42.805,6.029,CST-1368DR,4409,4926,11875,01.095,551
2023-01-25T08:59:29,42.805,6.029,CST-1368DR,4409,4926,11873,01.096,551
2023-01-25T09:02:31,42.805,6.029,CST-1368DR,4409,4924,11869,01.097,551
2023-01-25T09:05:32,42.805,6.029,CST-1368DR,4409,4924,11869,01.097,551
2023-01-25T09:08:34,42.805,6.029,CST-1368DR,4409,4924,11870,01.097,551
2023-01-25T09:11:36,42.805,6.029,CST-1368DR,4409,4924,11870,01.097,551
2023-01-25T09:14:37,42.805,6.029,CST-1368DR,4409,4923,11867,01.098,551
2023-01-25T09:17:39,42.805,6.029,CST-1368DR,4409,4923,11866,01.098,550
2023-01-25T09:20:40,42.805,6.029,CST-1368DR,4409,4923,11866,01.098,551
2023-01-25T09:23:42,42.805,6.029,CST-1368DR,4409,4922,11863,01.099,551
2023-01-25T09:26:43,42.805,6.029,CST-1368DR,4409,4923,11867,01.098,551
2023-01-25T09:29:45,42.805,6.029,CST-1368DR,4409,4923,11866,01.098,551
2023-01-25T09:32:47,42.805,6.029,CST-1368DR,4409,4924,11869,01.097,551
2023-01-25T09:35:48,42.805,6.029,CST-1368DR,4409,4922,11863,01.099,551
2023-01-25T09:38:50,42.805,6.029,CST-1368DR,4409,4922,11864,01.099,551
2023-01-25T09:41:51,42.805,6.029,CST-1368DR,4409,4922,11864,01.099,551
2023-01-25T09:44:53,42.805,6.029,CST-1368DR,4409,4921,11862,01.100,551
2023-01-25T09:47:55,42.805,6.029,CST-1368DR,4409,4922,11865,01.099,551
2023-01-25T09:50:56,42.805,6.029,CST-1368DR,4409,4922,11863,01.099,551
2023-01-25T09:53:58,42.805,6.029,CST-1368DR,4409,4921,11861,01.100,551
2023-01-25T09:56:59,42.805,6.029,CST-1368DR,4409,4922,11863,01.099,551
2023-01-25T10:00:01,42.805,6.029,CST-1368DR,4409,4922,11863,01.099,551
2023-01-25T10:03:02,42.805,6.029,CST-1368DR,4409,4921,11863,01.099,551
2023-01-25T10:06:04,42.805,6.029,CST-1368DR,4409,4920,11860,01.100,551
2023-01-25T10:09:06,42.805,6.029,CST-1368DR,4409,4924,11869,01.097,551
2023-01-25T10:12:07,42.805,6.029,CST-1368DR,4409,4923,11867,01.098,551
2023-01-25T10:15:09,42.805,6.029,CST-1368DR,4409,4923,11866,01.098,551
2023-01-25T10:18:10,42.805,6.029,CST-1368DR,4409,4922,11865,01.099,551
2023-01-25T10:21:12,42.805,6.029,CST-1368DR,4409,4923,11867,01.098,551
2023-01-25T10:24:14,42.805,6.029,CST-1368DR,4409,4923,11866,01.098,551
2023-01-25T10:27:15,42.805,6.029,CST-1368DR,4409,4922,11864,01.099,551
2023-01-25T10:30:17,42.805,6.029,CST-1368DR,4409,4922,11864,01.099,551
2023-01-25T10:33:18,42.805,6.029,CST-1368DR,4409,4923,11866,01.098,551
2023-01-25T10:36:20,42.805,6.029,CST-1368DR,4409,4923,11866,01.098,551
2023-01-25T10:39:22,42.805,6.029,CST-1368DR,4409,4920,11860,01.100,551
2023-01-25T10:42:23,42.805,6.029,CST-1368DR,4409,4922,11864,01.099,551
2023-01-25T10:45:25,42.805,6.029,CST-1368DR,4409,4922,11864,01.099,551
2023-01-25T10:48:26,42.805,6.029,CST-1368DR,4409,4922,11864,01.099,551
2023-01-25T10:51:28,42.805,6.029,CST-1368DR,4409,4923,11866,01.098,551
2023-01-25T10:54:29,42.805,6.029,CST-1368DR,4409,4923,11866,01.098,551
2023-01-25T10:57:31,42.805,6.029,CST-1368DR,4409,4922,11864,01.099,551
2023-01-25T11:00:33,42.805,6.029,CST-1368DR,4409,4923,11867,01.098,551
2023-01-25T11:03:34,42.805,6.029,CST-1368DR,4409,4922,11865,01.099,551
2023-01-25T11:06:36,42.805,6.029,CST-1368DR,4409,4923,11867,01.098,551
2023-01-25T11:09:37,42.805,6.029,CST-1368DR,4409,4923,11866,01.098,551
2023-01-25T11:12:39,42.805,6.029,CST-1368DR,4409,4922,11864,01.099,551
2023-01-25T11:15:41,42.805,6.029,CST-1368DR,4409,4923,11866,01.098,551
2023-01-25T11:18:42,42.805,6.029,CST-1368DR,4409,4921,11862,01.100,551
2023-01-25T11:21:44,42.805,6.029,CST-1368DR,4409,4923,11867,01.098,551
2023-01-25T11:24:45,42.805,6.029,CST-1368DR,4409,4922,11865,01.099,551
2023-01-25T11:27:47,42.805,6.029,CST-1368DR,4409,4922,11865,01.099,551
2023-01-25T11:30:48,42.805,6.029,CST-1368DR,4409,4922,11864,01.099,551
2023-01-25T11:33:50,42.805,6.029,CST-1368DR,4409,4922,11865,01.099,551
2023-01-25T11:36:52,42.805,6.029,CST-1368DR,4409,4921,11861,01.100,551
2023-01-25T11:39:53,42.805,6.029,CST-1368DR,4409,4922,11865,01.099,551
2023-01-25T11:42:55,42.805,6.029,CST-1368DR,4409,4922,11864,01.099,551
2023-01-25T11:45:56,42.805,6.029,CST-1368DR,4409,4922,11863,01.099,551
2023-01-25T11:48:58,42.805,6.029,CST-1368DR,4409,4922,11863,01.099,551
2023-01-25T11:52:00,42.805,6.029,CST-1368DR,4409,4922,11864,01.099,551
2023-01-25T11:55:01,42.805,6.029,CST-1368DR,4409,4923,11866,01.098,551
2023-01-25T11:58:03,42.805,6.029,CST-1368DR,4409,4923,11866,01.098,551
2023-01-25T12:01:04,42.805,6.029,CST-1368DR,4409,4923,11866,01.098,551
2023-01-25T12:04:06,42.805,6.029,CST-1368DR,4409,4922,11864,01.099,551
2023-01-25T12:07:07,42.805,6.029,CST-1368DR,4409,4922,11864,01.099,551
2023-01-25T12:10:09,42.805,6.029,CST-1368DR,4409,4922,11864,01.099,551
2023-01-25T12:13:11,42.805,6.029,CST-1368DR,4409,4923,11866,01.098,551
2023-01-25T12:16:12,42.805,6.029,CST-1368DR,4409,4922,11863,01.099,551
2023-01-25T12:19:14,42.805,6.029,CST-1368DR,4409,4923,11866,01.098,551
2023-01-25T12:22:15,42.805,6.029,CST-1368DR,4409,4922,11863,01.099,551
2023-01-25T12:25:17,42.805,6.029,CST-1368DR,4409,4922,11865,01.099,551
2023-01-25T12:28:19,42.805,6.029,CST-1368DR,4409,4921,11862,01.100,551
2023-01-25T12:31:20,42.805,6.029,CST-1368DR,4409,4922,11864,01.099,551
2023-01-25T12:34:22,42.805,6.029,CST-1368DR,4409,4923,11867,01.098,551
2023-01-25T12:37:23,42.805,6.029,CST-1368DR,4409,4923,11866,01.098,551
2023-01-25T12:40:25,42.805,6.029,CST-1368DR,4409,4923,11866,01.098,551
2023-01-25T12:43:27,42.805,6.029,CST-1368DR,4409,4921,11862,01.100,551
2023-01-25T12:46:28,42.805,6.029,CST-1368DR,4409,4923,11866,01.098,551
2023-01-25T12:49:30,42.805,6.029,CST-1368DR,4409,4922,11865,01.099,551
2023-01-25T12:52:31,42.805,6.029,CST-1368DR,4409,4923,11867,01.098,550
2023-01-25T12:55:33,42.805,6.029,CST-1368DR,4409,4922,11865,01.099,551
2023-01-25T12:58:34,42.805,6.029,CST-1368DR,4409,4922,11864,01.099,551
2023-01-25T13:01:36,42.805,6.029,CST-1368DR,4409,4920,11860,01.100,551
2023-01-25T13:04:38,42.805,6.029,CST-1368DR,4409,4922,11863,01.099,551
2023-01-25T13:07:39,42.805,6.029,CST-1368DR,4409,4922,11864,01.099,551
2023-01-25T13:10:41,42.805,6.029,CST-1368DR,4409,4919,11857,01.102,551
2023-01-25T13:13:42,42.805,6.029,CST-1368DR,4409,4922,11864,01.099,551
2023-01-25T13:16:44,42.805,6.029,CST-1368DR,4409,4922,11864,01.099,551
2023-01-25T13:19:46,42.805,6.029,CST-1368DR,4409,4923,11867,01.098,551
2023-01-25T13:22:47,42.805,6.029,CST-1368DR,4409,4922,11865,01.099,551
2023-01-25T13:25:49,42.805,6.029,CST-1368DR,4409,4923,11867,01.098,551
2023-01-25T13:28:50,42.805,6.029,CST-1368DR,4409,4922,11865,01.099,551
2023-01-25T13:31:52,42.805,6.029,CST-1368DR,4409,4923,11866,01.098,551
2023-01-25T13:34:53,42.805,6.029,CST-1368DR,4409,4922,11865,01.099,551
2023-01-25T13:37:55,42.805,6.029,CST-1368DR,4409,4921,11863,01.099,551
2023-01-25T13:40:57,42.805,6.029,CST-1368DR,4408,4908,11833,01.110,551
2023-01-25T13:43:58,42.805,6.029,CST-1368DR,4409,4922,11865,01.099,551
2023-01-25T13:47:00,42.805,6.029,CST-1368DR,4409,4923,11866,01.098,551
2023-01-25T13:50:01,42.805,6.029,CST-1368DR,4409,4922,11865,01.099,551
2023-01-25T13:53:03,42.805,6.029,CST-1368DR,4409,4921,11863,01.099,551
2023-01-25T13:56:05,42.805,6.029,CST-1368DR,4409,4923,11867,01.098,551
2023-01-25T13:59:06,42.805,6.029,CST-1368DR,4408,4922,11866,01.098,551
2023-01-25T14:02:08,42.805,6.029,CST-1368DR,4409,4922,11864,01.099,551
2023-01-25T14:05:09,42.805,6.029,CST-1368DR,4408,4922,11866,01.098,551
2023-01-25T14:08:11,42.805,6.029,CST-1368DR,4408,4923,11868,01.098,551
2023-01-25T14:11:12,42.805,6.029,CST-1368DR,4409,4923,11866,01.098,551
2023-01-25T14:14:14,42.805,6.029,CST-1368DR,4409,4922,11864,01.099,551
2023-01-25T14:17:16,42.805,6.029,CST-1368DR,4408,4922,11868,01.098,551
2023-01-25T14:20:17,42.805,6.029,CST-1368DR,4409,4923,11866,01.098,551
2023-01-25T14:23:19,42.805,6.029,CST-1368DR,4408,4921,11863,01.099,551
2023-01-25T14:26:20,42.805,6.029,CST-1368DR,4408,4922,11866,01.098,551
2023-01-25T14:29:22,42.805,6.029,CST-1368DR,4408,4923,11868,01.098,551
2023-01-25T14:32:24,42.805,6.029,CST-1368DR,4408,4922,11866,01.098,551
2023-01-25T14:35:25,42.805,6.029,CST-1368DR,4408,4922,11868,01.098,551
2023-01-25T14:38:27,42.805,6.029,CST-1368DR,4408,4923,11870,01.097,551
2023-01-25T14:41:28,42.805,6.029,CST-1368DR,4408,4923,11869,01.097,551
2023-01-25T14:44:30,42.805,6.029,CST-1368DR,4408,4923,11869,01.097,551
2023-01-25T14:47:31,42.805,6.029,CST-1368DR,4408,4924,11872,01.096,551
2023-01-25T14:50:33,42.805,6.029,CST-1368DR,4408,4925,11873,01.096,551
2023-01-25T14:53:35,42.805,6.029,CST-1368DR,4408,4925,11873,01.096,551
2023-01-25T14:56:36,42.805,6.029,CST-1368DR,4409,4924,11869,01.097,551
2023-01-25T14:59:38,42.805,6.029,CST-1368DR,4408,4923,11870,01.097,551
2023-01-25T15:02:39,42.805,6.029,CST-1368DR,4409,4924,11870,01.097,551
2023-01-25T15:05:41,42.805,6.029,CST-1368DR,4408,4917,11854,01.103,551
2023-01-25T15:08:43,42.805,6.029,CST-1368DR,4409,4921,11862,01.100,551
2023-01-25T15:11:44,42.805,6.029,CST-1368DR,4408,4922,11868,01.098,551
2023-01-25T15:14:46,42.805,6.029,CST-1368DR,4408,4922,11867,01.098,551
2023-01-25T15:17:47,42.805,6.029,CST-1368DR,4408,4922,11866,01.098,551
2023-01-25T15:20:49,42.805,6.029,CST-1368DR,4408,4924,11872,01.096,551
2023-01-25T15:23:50,42.805,6.029,CST-1368DR,4408,4923,11870,01.097,551
2023-01-25T15:26:52,42.805,6.029,CST-1368DR,4408,4923,11869,01.097,551
2023-01-25T15:29:54,42.805,6.029,CST-1368DR,4408,4924,11871,01.097,551
2023-01-25T15:32:55,42.805,6.029,CST-1368DR,4408,4924,11872,01.096,551
2023-01-25T15:35:57,42.805,6.029,CST-1368DR,4408,4925,11874,01.096,551
2023-01-25T15:38:58,42.805,6.029,CST-1368DR,4408,4922,11868,01.098,551
2023-01-25T15:42:00,42.805,6.029,CST-1368DR,4409,4925,11872,01.096,551
2023-01-25T15:45:02,42.805,6.029,CST-1368DR,4409,4925,11872,01.096,551
2023-01-25T15:48:03,42.805,6.029,CST-1368DR,4409,4924,11869,01.097,551
2023-01-25T15:51:05,42.805,6.029,CST-1368DR,4408,4925,11875,01.095,551
2023-01-25T15:54:06,42.805,6.029,CST-1368DR,4408,4925,11873,01.096,551
2023-01-25T15:57:08,42.805,6.029,CST-1368DR,4408,4925,11875,01.095,551
2023-01-25T16:00:09,42.805,6.029,CST-1368DR,4409,4925,11870,01.097,551
2023-01-25T16:03:11,42.805,6.029,CST-1368DR,4409,4925,11870,01.097,551
2023-01-25T16:06:13,42.805,6.029,CST-1368DR,4408,4925,11873,01.096,551
2023-01-25T16:09:14,42.805,6.029,CST-1368DR,4408,4925,11874,01.096,551
2023-01-25T16:12:16,42.805,6.029,CST-1368DR,4409,4926,11873,01.096,551
2023-01-25T16:15:17,42.805,6.029,CST-1368DR,4408,4926,11875,01.095,551
2023-01-25T16:18:19,42.805,6.029,CST-1368DR,4408,4925,11874,01.096,551
2023-01-25T16:21:21,42.805,6.029,CST-1368DR,4409,4926,11873,01.096,551
2023-01-25T16:24:22,42.805,6.029,CST-1368DR,4409,4925,11871,01.097,551
2023-01-25T16:27:24,42.805,6.029,CST-1368DR,4408,4925,11874,01.096,551
2023-01-25T16:30:25,42.805,6.029,CST-1368DR,4408,4925,11874,01.096,551
2023-01-25T16:33:27,42.805,6.029,CST-1368DR,4408,4926,11876,01.095,551
2023-01-25T16:36:28,42.805,6.029,CST-1368DR,4408,4925,11874,01.096,551